Regional Weather Roundup
Issued by NWS

Home | Current Version | Previous Version | Text Only | Print | Product List | Glossary On
Versions: 1 2 3 4 5 6 7 8 9 10 11 12 13 14 15 16 17 18 19 20 21 22 23 24 25 26 27 28 29 30 31 32 33 34 35 36 37 38 39 40 41 42 43 44 45 46 47 48 49 50
000
ASUS43 KTOP 280008
RWRKS

WEATHER ROUNDUP FOR KANSAS
NATIONAL WEATHER SERVICE GOODLAND KS
700 PM CDT THU APR 27 2017

NOTE:  "FAIR" INDICATES FEW OR NO CLOUDS BELOW 12,000 FEET WITH NO
SIGNIFICANT WEATHER AND/OR OBSTRUCTIONS TO VISIBILITY.

KSZ001>006-013>018-027>032-041>047-280100-
NORTHWEST KANSAS

CITY           SKY/WX    TMP DP  RH WIND       PRES   REMARKS
GOODLAND       TSTM      47  41  80 W18G31    29.53R
6HR MIN TEMP:  52; 6HR MAX TEMP:  64; 6HR PCP: TRACE;

HAYS           CLOUDY    52  46  80 E17       29.59R
HILL CITY      PTSUNNY   51  43  74 E17G25    29.60R
6HR MIN TEMP:  50; 6HR MAX TEMP:  55; 6HR PCP:  0.01;

RUSSELL        LGT RAIN  50  46  86 E16       29.60R
6HR MIN TEMP:  50; 6HR MAX TEMP:  56; 6HR PCP:  0.10;

$$

KSZ061>065-074>080-084>089-280100-
SOUTHWEST KANSAS

CITY           SKY/WX    TMP DP  RH WIND       PRES   REMARKS
DODGE CITY     MOSUNNY   58  43  57 SE22G32   29.48F
6HR MIN TEMP:  57; 6HR MAX TEMP:  65; 6HR PCP: TRACE;

ELKHART          N/A     64  39  39 NW5         N/A
GARDEN CITY    CLOUDY    56  43  61 E28G37    29.42F
6HR MIN TEMP:  56; 6HR MAX TEMP:  65; 6HR PCP: TRACE;

GREAT BEND     LGT RAIN  52  46  80 E15       29.58F
LIBERAL        MOSUNNY   69  45  41 SE13      29.39S
PRATT          CLOUDY    54  41  61 SE18G25   29.56S
6HR MIN TEMP:  51; 6HR MAX TEMP:  57;

$$

KSZ066>073-081>083-090>101-280100-
SOUTHEAST KANSAS

CITY           SKY/WX    TMP DP  RH WIND       PRES   REMARKS
CHANUTE        CLOUDY    59  46  62 NE8       29.68F
6HR MIN TEMP:  58; 6HR MAX TEMP:  61; 6HR PCP: TRACE;

COFFEYVILLE    MOSUNNY   60  49  66 SE6       29.68F
6HR MIN TEMP:  60; 6HR MAX TEMP:  63;

HUTCHINSON     CLOUDY    54  46  74 E13       29.63R
6HR MIN TEMP:  54; 6HR MAX TEMP:  62; 6HR PCP:  0.01;

MEDICINE LODGE   N/A     60  43  53 SE14G26   29.54F
NEWTON         CLOUDY    53  44  71 SE10      29.65R
PARSONS        CLOUDY    60  47  61 VRB6      29.68F
6HR MIN TEMP:  59; 6HR MAX TEMP:  63; 6HR PCP: TRACE;

WICHITA INTL   CLOUDY    57  45  64 SE17      29.63S
6HR MIN TEMP:  56; 6HR MAX TEMP:  62; 6HR PCP:  0.02;

WICHITA JABRA  CLOUDY    55  46  71 SE7       29.65R
6HR MIN TEMP:  53; 6HR MAX TEMP:  61; 6HR PCP: TRACE;

WICHITA MCCONL PTSUNNY   57  44  63 SE13      29.64R
WINFIELD       MOSUNNY   61  43  51 SE16      29.67R
6HR MIN TEMP:  60; 6HR MAX TEMP:  63;

$$

KSZ007>012-019>026-033>040-048>060-102>105-280100-
NORTHEAST KANSAS

CITY           SKY/WX    TMP DP  RH WIND       PRES   REMARKS
CONCORDIA      LGT RAIN  49  47  93 E9        29.69R
6HR MIN TEMP:  49; 6HR MAX TEMP:  58; 6HR PCP:  0.10;

EMPORIA        CLOUDY    54  48  80 E9        29.71R
6HR MIN TEMP:  54; 6HR MAX TEMP:  60; 6HR PCP:  0.01;

LAWRENCE       LGT RAIN  58  44  60 SE6       29.75R
6HR MIN TEMP:  57; 6HR MAX TEMP:  62; 6HR PCP: TRACE;

MANHATTAN      LGT RAIN  55  44  66 E5        29.71R
6HR MIN TEMP:  55; 6HR MAX TEMP:  61; 6HR PCP: TRACE;

OLATHE IND     CLOUDY    59  41  51 CALM      29.75R
6HR MIN TEMP:  55; 6HR MAX TEMP:  61;

OLATHE EXE     CLOUDY    58  43  57 CALM      29.74R
6HR MIN TEMP:  54; 6HR MAX TEMP:  60;

SALINA         LGT RAIN  55  47  74 E10       29.67R
6HR MIN TEMP:  55; 6HR MAX TEMP:  61; 6HR PCP:  0.02;

TOPEKA BILLARD LGT RAIN  58  43  57 S6        29.75R
6HR MIN TEMP:  57; 6HR MAX TEMP:  63; 6HR PCP: TRACE;

TOPEKA FORBES  LGT RAIN  57  44  62 S3        29.74R
6HR MIN TEMP:  57; 6HR MAX TEMP:  62; 6HR PCP: TRACE;

$$




USA.gov is the U.S. government's official web portal to all federal, state and local government web resources and services.